Etusivu
METAR-TAF:

METAR-TAF

Lentoasemat :

Vilhelminan, Ruotsi

Leveyspiiri: 64-34-44N, Pituuspiiri: 016-50-00E, korkeus merenpinnasta: 347 m

Tämänhetkinen sää

Tämä raportti tehtiin 39 minuuttia sitten, kello 20.20 UTC
Tuuli 8 kn lännestä/lounaasta
Lämpötila 9°C
Kosteus 66%
Ilmanpaine 1003 hPa
Näkyvyys 10 km tai enemmän

METAR: ESNV 202020Z AUTO 24008KT 9999 NCD 09/03 Q1003

Aika: 22:59 (20:59 UTC)


TAF: puuttuu

Säähavainnot ja -ennusteet yli 4000 lentoasemalta (METAR- ja TAF-raportit).

Käytössä olevat sääasemat on merkitty karttaan keltaisilla ja punaisilla pisteillä.

Aseta hiiri pisteen päälle nähdäksesi sääaseman nimen.

Klikkaa sitten nähdäksesi säähavainnot ja -ennusteet.

Kartan vaihtaminen: klikkaa mustalla rastilla varustettuja vihreitä pisteitä, niin voit zoomata sisään; viivalla varustettua vihreää pistettä, niin voit zoomata ulos tai vihreitä nuolia, niin pääset viereisille kartoille.


METAR-TAF: